Powrót do katalogu

SL-12 DEB

LostHEO
NORAD 35056·DEBRIS·🇷🇺 Russia

Wystrzelony Apr 4, 1991 z Baikonur Cosmodrome

Loading…

Następne Przeloty (najbliższe 24 godziny)

TLE

NieaktualneSource: Space-Track

Epoka: Jan 30, 2010, 21:06 UTC

1 35056U 91025AA  10030.87953118 -.00001994  00000-0 -16813-1 0  9997
2 35056  65.3186  54.7376 5610935 349.0324   2.6415  4.25227581 10506

Śledź SL-12 DEB w czasie rzeczywistym z AllMySat

Download on the App Store